Location: Kuffner-Sternwarte
(48.2130°N, 16.2960°E)
Time: 22:49:03
(UTC+01:00)

COROT - Visible Passes

Search period start: 25 February 2018 00:00
Search period end: 07 March 2018 00:00
Orbit: 601 x 888 km, 90.0° (Epoch: 24 February)

Date Brightness Start Highest point End Pass type
(mag) Time Alt. Az. Time Alt. Az. Time Alt. Az.
25 Feb 8.9 02:02:38 10° N 02:03:08 13° NNE 02:03:08 13° NNE visible
25 Feb 8.6 03:42:45 10° NNW 03:42:55 11° NNW 03:42:55 11° NNW visible
26 Feb 8.6 02:59:12 10° N 02:59:54 14° N 02:59:54 14° N visible
27 Feb 8.7 02:16:03 10° N 02:16:53 15° N 02:16:53 15° N visible
28 Feb 9.0 01:33:18 10° NNE 01:33:52 13° NNE 01:33:52 13° NNE visible
28 Feb 8.5 03:12:56 10° NNW 03:13:39 14° NNW 03:13:39 14° NNW visible
01 Mar 8.6 02:29:36 10° N 02:30:38 16° N 02:30:38 16° N visible
02 Mar 8.8 01:46:38 10° N 01:47:37 15° NNE 01:47:37 15° NNE visible
02 Mar 8.5 03:26:50 10° NNW 03:27:24 12° NNW 03:27:24 12° NNW visible
03 Mar 9.0 01:04:05 10° NNE 01:04:36 12° NNE 01:04:36 12° NNE visible
03 Mar 8.5 02:43:15 10° N 02:44:23 16° N 02:44:23 16° N visible
04 Mar 8.6 02:00:06 10° N 02:01:22 17° N 02:01:22 17° N visible
04 Mar 8.6 03:40:57 10° NNW 03:41:09 11° NNW 03:41:09 11° NNW visible
05 Mar 8.8 01:17:19 10° NNE 01:18:21 15° NNE 01:18:21 15° NNE visible
05 Mar 8.5 02:57:02 10° NNW 02:58:08 15° NNW 02:58:08 15° NNW visible
06 Mar 9.1 00:35:03 10° NNE 00:35:20 11° NNE 00:35:20 11° NNE visible
06 Mar 8.5 02:13:41 10° N 02:15:07 18° N 02:15:07 18° N visible
